User: anonymous   Login
Location: Vancouver
(49.2500°N, 123.1330°W)
Time: 08:28:10
(UTC-07:00)
Language:

Iridium 35 - Orbit

View from above orbital plane
View from above orbital plane
View from above satellite
View from above satellite

Ground track
Ground track

The orbit data is extracted from the following two-line orbital elements,

1 24966U 97056B   18110.92744981 +.00000194 +00000-0 +56776-4 0  9998
2 24966 086.4278 190.0644 0002374 100.2705 259.8761 14.38612213076360
Epoch (UTC): 20 April 2018 22:15:31
Eccentricity: 0.0002374
inclination: 86.4278°
perigee height: 761 km
apogee height: 765 km
right ascension of ascending node: 190.0644°
argument of perigee: 100.2705°
revolutions per day: 14.38612213
mean anomaly at epoch: 259.8761°
orbit number at epoch: 7636

The dashed part of the orbit path shows where the satellite is in the earth's shadow,  

DLR